This is the latest recevied weather packets stored in our database for station/object KC1OEK-13. If no packets are shown the sender has not sent any weather packets the latest 10 day(s).
| Time | Temp. | Humidity | Pressure | Rain* | Wind** | Luminosity | Snow |
|---|---|---|---|---|---|---|---|
| 1777477410 | 17.22° C | 54% | 1016 hPa | 0 mm | - | 754 W/m² | - |
| 1777477106 | 17.22° C | 55% | 1016 hPa | 0 mm | - | 411 W/m² | - |
| 1777476804 | 17.22° C | 53% | 1015.9 hPa | 0 mm | - | 690 W/m² | - |
| 1777476501 | 17.22° C | 54% | 1016 hPa | 0 mm | - | 713 W/m² | - |
| 1777476197 | 17.78° C | 52% | 1015.9 hPa | 0 mm | - | 573 W/m² | - |
| 1777475893 | 18.33° C | 50% | 1015.8 hPa | 0 mm | - | 613 W/m² | - |
| 1777475589 | 17.78° C | 56% | 1016 hPa | 0 mm | - | 645 W/m² | - |
| 1777475285 | 16.67° C | 53% | 1016.2 hPa | 0 mm | - | 628 W/m² | - |
| 1777474981 | 16.67° C | 54% | 1016.1 hPa | 0 mm | - | 677 W/m² | - |
| 1777474677 | 17.22° C | 51% | 1016 hPa | 0 mm | - | 643 W/m² | - |
| 1777474374 | 16.67° C | 54% | 1015.8 hPa | 0 mm | - | 661 W/m² | - |
| 1777474069 | 17.22° C | 57% | 1016.2 hPa | 0 mm | - | 656 W/m² | - |
| 1777473768 | 16.11° C | 54% | 1016.2 hPa | 0 mm | - | 637 W/m² | - |
| 1777473464 | 16.11° C | 54% | 1016.2 hPa | 0 mm | - | 631 W/m² | - |
| 1777473160 | 15.56° C | 57% | 1016.3 hPa | 0 mm | - | 619 W/m² | - |
| 1777472858 | 15° C | 58% | 1016.2 hPa | 0 mm | - | 605 W/m² | - |
| 1777472553 | 15° C | 57% | 1016.4 hPa | 0 mm | - | 590 W/m² | - |
| 1777472250 | 15° C | 56% | 1016.4 hPa | 0 mm | - | 586 W/m² | - |
| 1777471946 | 13.89° C | 58% | 1016.4 hPa | 0 mm | - | 526 W/m² | - |
| 1777471643 | 14.44° C | 56% | 1016.9 hPa | 0 mm | - | 510 W/m² | - |
| 1777471339 | 14.44° C | 58% | 1016.8 hPa | 0 mm | - | 503 W/m² | - |
| 1777471030 | 14.44° C | 59% | 1016.7 hPa | 0 mm | - | 570 W/m² | - |
| 1777470727 | 15° C | 56% | 1017 hPa | 0 mm | - | 501 W/m² | - |
| 1777470424 | 15° C | 57% | 1016.9 hPa | 0 mm | - | 365 W/m² | - |
| 1777470120 | 13.89° C | 59% | 1017.2 hPa | 0 mm | - | 347 W/m² | - |
* Rain latest hour (hover to see other rain measurements)
** Current wind speed in m/s (hover to see current wind gust speed)